This is the latest recevied weather packets stored in our database for station/object KF6RAL-6. If no packets are shown the sender has not sent any weather packets the latest 10 day(s).
| Time | Temp. | Humidity | Pressure | Rain* | Wind** | Luminosity | Snow |
|---|---|---|---|---|---|---|---|
| 1777666228 | 13.89° C | 47% | 1018.7 hPa | 0 mm | - | - | - |
| 1777665808 | 13.89° C | 47% | 1018.8 hPa | 0 mm | - | - | - |
| 1777665386 | 13.89° C | 46% | 1018.8 hPa | 0 mm | - | - | - |
| 1777664965 | 13.89° C | 48% | 1018.3 hPa | 0 mm | - | - | - |
| 1777664544 | 13.89° C | 50% | 1018.3 hPa | 0 mm | - | - | - |
| 1777664126 | 13.89° C | 49% | 1018.4 hPa | 0 mm | - | - | - |
| 1777663702 | 13.89° C | 49% | 1018.5 hPa | 0 mm | - | - | - |
| 1777663284 | 13.89° C | 48% | 1018.4 hPa | 0 mm | - | - | - |
| 1777662860 | 13.89° C | 51% | 1018.5 hPa | 0 mm | - | - | - |
| 1777662439 | 13.89° C | 48% | 1018.5 hPa | 0 mm | - | - | - |
| 1777662019 | 13.89° C | 49% | 1018.6 hPa | 0 mm | - | - | - |
| 1777661597 | 13.89° C | 47% | 1018.6 hPa | 0 mm | - | - | - |
| 1777661176 | 13.89° C | 49% | 1018.7 hPa | 0 mm | - | - | - |
| 1777660755 | 13.89° C | 47% | 1018.8 hPa | 0 mm | - | - | - |
| 1777660334 | 13.89° C | 48% | 1018.8 hPa | 0 mm | - | - | - |
| 1777659913 | 13.89° C | 50% | 1018.9 hPa | 0 mm | - | - | - |
| 1777659492 | 13.89° C | 51% | 1018.9 hPa | 0 mm | - | - | - |
| 1777659071 | 13.33° C | 51% | 1018.9 hPa | 0 mm | - | - | - |
| 1777658650 | 13.33° C | 52% | 1019.1 hPa | 0 mm | - | - | - |
| 1777658229 | 13.33° C | 53% | 1019 hPa | 0 mm | - | - | - |
| 1777657808 | 13.33° C | 51% | 1019 hPa | 0 mm | - | - | - |
| 1777657387 | 13.33° C | 51% | 1019 hPa | 0 mm | - | - | - |
| 1777656966 | 12.78° C | 50% | 1019.3 hPa | 0 mm | - | - | - |
| 1777656546 | 13.33° C | 48% | 1019.1 hPa | 0 mm | - | - | - |
| 1777655703 | 13.33° C | 45% | 1019.3 hPa | 0 mm | - | - | - |
* Rain latest hour (hover to see other rain measurements)
** Current wind speed in m/s (hover to see current wind gust speed)